FW5359 Weather Reports


Display with metric or nautical units.
time (UTC)temp
F
wind
direction
speed
MPH
gust
MPH
rain 1hr
in
rain 24hr
in
rain mn
in
humidity
%
barometer
mb
20260507103656 62 78 3.0 11.0 0.00 0.00 0.00 82 1015.8
20260507102925 62 78 4.0 11.0 0.00 0.00 0.00 81 1015.9
20260507102425 62 36 3.0 11.0 0.00 0.00 0.00 81 1016.0
20260507101924 62 26 3.0 11.0 0.00 0.00 0.00 82 1015.9
20260507101424 62 64 2.0 10.0 0.00 0.00 0.00 82 1015.9
20260507100925 62 95 2.0 8.0 0.00 0.00 0.00 82 1015.8
20260507100424 62 38 2.0 10.0 0.00 0.00 0.00 82 1015.7
20260507095918 62 39 3.0 10.0 0.00 0.00 0.00 82 1015.7
20260507095412 62 30 3.0 10.0 0.00 0.00 0.00 82 1015.8
20260507094912 62 74 3.0 14.0 0.00 0.00 0.00 82 1015.9
20260507094410 62 13 3.0 14.0 0.00 0.00 0.00 82 1015.6
20260507093913 62 24 3.0 10.0 0.00 0.00 0.00 82 1015.7
20260507093410 62 85 2.0 8.0 0.00 0.00 0.00 82 1015.7
20260507092911 62 64 2.0 8.0 0.00 0.00 0.00 82 1015.8
20260507092411 62 82 2.0 11.0 0.00 0.00 0.00 82 1015.8
20260507091910 62 80 2.0 11.0 0.00 0.00 0.00 82 1015.7
20260507091410 62 31 2.0 8.0 0.00 0.00 0.00 82 1015.6
20260507090911 62 68 3.0 12.0 0.00 0.00 0.00 82 1015.7
20260507090409 62 26 3.0 12.0 0.00 0.00 0.00 82 1015.8
20260507085909 62 76 3.0 9.0 0.00 0.00 0.00 82 1015.7
20260507085409 62 28 3.0 9.0 0.00 0.00 0.00 82 1015.6
20260507084911 62 49 3.0 10.0 0.00 0.00 0.00 82 1015.6
20260507084639 62 34 3.0 10.0 0.00 0.00 0.00 82 1015.8
20260507083907 63 20 3.0 9.0 0.00 0.00 0.00 82 1015.7
20260507083404 63 68 2.0 9.0 0.00 0.00 0.00 82 1015.8
20260507082903 63 79 3.0 11.0 0.00 0.00 0.00 82 1015.7
20260507082357 63 80 3.0 11.0 0.00 0.00 0.00 82 1015.7
20260507081852 63 84 3.0 11.0 0.00 0.00 0.00 82 1015.7
20260507081346 63 35 2.0 9.0 0.00 0.00 0.00 82 1015.9
20260507080840 63 16 1.0 7.0 0.00 0.00 0.00 82 1016.1
20260507080334 63 58 2.0 8.0 0.00 0.00 0.00 82 1015.9
20260507075828 63 53 2.0 11.0 0.00 0.00 0.00 82 1015.9
20260507075322 63 41 3.0 11.0 0.00 0.00 0.00 82 1015.9
20260507074815 63 45 3.0 11.0 0.00 0.00 0.00 82 1015.7
20260507074310 63 128 3.0 11.0 0.00 0.00 0.00 82 1015.8
20260507073808 63 63 3.0 11.0 0.00 0.00 0.00 82 1015.9
20260507073308 63 41 2.0 11.0 0.00 0.00 0.00 82 1016.1
20260507072307 63 48 3.0 11.0 0.00 0.00 0.00 82 1016.2
20260507071806 63 22 3.0 10.0 0.00 0.00 0.00 82 1016.1
20260507071304 63 49 3.0 9.0 0.00 0.00 0.00 82 1016.1
20260507070807 63 56 3.0 9.0 0.00 0.00 0.00 82 1016.2
20260507070307 63 78 3.0 8.0 0.00 0.00 0.00 82 1016.2
20260507070033 63 61 3.0 10.0 0.00 0.00 0.00 82 1016.1
20260507065301 63 60 2.0 8.0 0.00 0.00 0.00 82 1016.2
20260507064759 63 66 2.0 8.0 0.00 0.00 0.00 82 1016.1
20260507064300 63 62 2.0 8.0 0.00 0.00 0.00 82 1016.0
20260507063758 63 65 2.0 4.0 0.00 0.00 0.00 82 1016.0
20260507063256 63 66 2.0 4.0 0.00 0.00 0.00 82 1016.1
20260507063026 63 66 2.0 8.0 0.00 0.00 0.00 82 1016.1
20260507062255 63 77 3.0 9.0 0.00 0.00 0.00 82 1016.0
20260507061754 63 94 3.0 9.0 0.00 0.00 0.00 82 1015.9
20260507061254 63 63 2.0 6.0 0.00 0.00 0.00 82 1015.9
20260507060254 63 45 3.0 13.0 0.00 0.00 0.00 82 1015.5
20260507055752 63 74 3.0 9.0 0.00 0.00 0.00 82 1015.4
20260507055250 63 78 3.0 11.0 0.00 0.00 0.00 82 1015.4
20260507054748 63 25 4.0 11.0 0.00 0.00 0.00 82 1015.4
20260507054246 63 23 3.0 10.0 0.00 0.00 0.00 82 1015.2
20260507053746 63 57 3.0 9.0 0.00 0.00 0.00 82 1015.2
20260507053246 63 43 3.0 12.0 0.00 0.00 0.00 82 1015.0
20260507052746 63 0 2.0 12.0 0.00 0.00 0.00 82 1014.9
20260507052246 63 0 3.0 12.0 0.00 0.00 0.00 83 1015.0
20260507051744 63 111 3.0 12.0 0.00 0.00 0.00 83 1014.8
20260507051244 63 47 4.0 15.0 0.00 0.00 0.00 83 1014.7
20260507050744 64 61 4.0 15.0 0.00 0.00 0.00 83 1014.6
20260507050243 64 50 4.0 13.0 0.00 0.00 0.00 83 1014.8
20260507050014 64 59 4.0 13.0 0.00 0.00 0.00 83 1014.7
20260507045244 64 50 3.0 9.0 0.00 0.00 0.00 83 1014.9
20260507045014 64 25 3.0 9.0 0.00 0.00 0.00 83 1014.8
20260507044514 64 57 3.0 11.0 0.00 0.00 0.00 83 1014.6
20260507043743 64 78 4.0 11.0 0.00 0.00 0.00 83 1014.7
20260507043237 64 61 4.0 14.0 0.00 0.00 0.00 83 1015.0
20260507042731 64 76 4.0 14.0 0.00 0.00 0.00 83 1015.0
20260507042225 64 55 4.0 13.0 0.00 0.00 0.00 83 1015.0
20260507041719 64 72 4.0 15.0 0.00 0.00 0.00 83 1014.9
20260507041213 64 44 3.0 15.0 0.00 0.00 0.00 83 1014.8
20260507040707 64 50 3.0 9.0 0.00 0.00 0.00 83 1014.6
20260507040202 64 46 3.0 9.0 0.00 0.00 0.00 83 1014.5
20260507035655 64 336 2.0 9.0 0.00 0.00 0.00 83 1014.3
20260507035149 64 46 3.0 11.0 0.00 0.00 0.00 83 1014.3
20260507034642 64 11 2.0 11.0 0.00 0.00 0.00 82 1014.2
20260507034137 64 355 1.0 6.0 0.00 0.00 0.00 82 1014.3
20260507033631 64 53 1.0 9.0 0.00 0.00 0.00 82 1014.1
20260507033125 64 57 1.0 9.0 0.00 0.00 0.00 82 1014.1
20260507032619 64 32 2.0 10.0 0.00 0.00 0.00 82 1014.0
20260507031607 64 41 3.0 14.0 0.00 0.00 0.00 82 1013.9
20260507031101 64 343 2.0 14.0 0.00 0.00 0.00 82 1014.0
20260507030555 64 51 2.0 11.0 0.00 0.00 0.00 82 1014.0
20260507030048 64 79 2.0 11.0 0.00 0.00 0.00 82 1014.0
20260507025543 64 303 2.0 9.0 0.00 0.00 0.00 82 1014.1
20260507025036 64 33 3.0 11.0 0.00 0.00 0.00 82 1014.0
20260507024530 64 44 2.0 11.0 0.00 0.00 0.00 81 1014.0
20260507024025 64 283 2.0 11.0 0.00 0.00 0.00 81 1013.9
20260507023751 65 44 2.0 11.0 0.00 0.00 0.00 81 1014.0
20260507023244 65 30 2.0 13.0 0.00 0.00 0.00 81 1013.9
20260507022738 65 26 2.0 13.0 0.00 0.00 0.00 81 1013.8
20260507022001 65 32 2.0 10.0 0.00 0.00 0.00 81 1013.9
20260507021455 65 355 3.0 13.0 0.00 0.00 0.00 81 1013.8
20260507020949 65 69 3.0 13.0 0.00 0.00 0.00 81 1013.8
20260507020713 65 15 2.0 8.0 0.00 0.00 0.00 80 1013.8
20260507015937 65 29 2.0 9.0 0.00 0.00 0.00 80 1013.6
20260507015431 65 311 2.0 11.0 0.00 0.00 0.00 80 1013.2
20260507014925 65 355 3.0 11.0 0.00 0.00 0.00 80 1013.2
20260507014419 65 51 3.0 10.0 0.00 0.00 0.00 80 1012.9
20260507013407 66 52 4.0 16.0 0.00 0.00 0.00 80 1013.0
20260507013132 66 17 4.0 16.0 0.00 0.00 0.00 79 1012.9
20260507012626 66 44 3.0 11.0 0.00 0.00 0.00 79 1013.0
20260507011851 67 28 3.0 12.0 0.00 0.00 0.00 79 1013.1
20260507011351 67 27 3.0 12.0 0.00 0.00 0.00 79 1013.2
20260507011122 67 34 1.0 8.0 0.00 0.00 0.00 78 1012.9
20260507010354 67 26 2.0 10.0 0.00 0.00 0.00 78 1013.0
20260507005851 67 344 4.0 13.0 0.00 0.00 0.00 78 1012.6
20260507005349 68 37 4.0 14.0 0.00 0.00 0.00 78 1012.5
20260507004347 68 51 4.0 14.0 0.00 0.00 0.00 77 1012.5
20260507003847 68 38 5.0 14.0 0.00 0.00 0.00 77 1012.6
20260507003347 69 29 4.0 14.0 0.00 0.00 0.00 76 1012.5
20260507002847 69 5 4.0 14.0 0.00 0.00 0.00 76 1012.2
20260507002347 70 17 3.0 14.0 0.00 0.00 0.00 75 1012.5
20260507001843 70 54 2.0 9.0 0.00 0.00 0.00 75 1012.5
20260507001615 70 49 3.0 9.0 0.00 0.00 0.00 75 1012.4
20260507001115 71 76 3.0 10.0 0.00 0.00 0.00 75 1012.1
20260507000343 71 30 3.0 11.0 0.00 0.00 0.00 75 1011.9
20260506235842 71 34 4.0 11.0 0.00 0.00 0.00 75 1012.1
20260506235342 71 53 4.0 12.0 0.00 0.00 0.00 74 1011.8
20260506234843 72 53 3.0 12.0 0.00 0.00 0.00 74 1011.7
20260506234343 72 74 3.0 11.0 0.00 0.00 0.00 74 1011.8
20260506233843 72 51 3.0 12.0 0.00 0.00 0.00 73 1011.6
20260506233343 72 67 4.0 12.0 0.00 0.00 0.00 73 1011.6
20260506232842 73 37 5.0 11.0 0.00 0.00 0.00 72 1011.5
20260506232342 74 79 4.0 11.0 0.00 0.00 0.00 72 1011.3
20260506231842 74 36 4.0 13.0 0.00 0.00 0.00 71 1011.2
20260506231613 75 37 4.0 13.0 0.00 0.00 0.00 70 1011.3
20260506231114 76 82 4.0 10.0 0.00 0.00 0.00 70 1011.2
20260506230341 76 34 4.0 12.0 0.00 0.00 0.00 69 1011.3
20260506225841 77 344 4.0 12.0 0.00 0.00 0.00 68 1011.1
20260506225341 78 119 5.0 14.0 0.00 0.00 0.00 67 1011.1
20260506224841 79 53 5.0 14.0 0.00 0.00 0.00 66 1011.0
20260506224339 80 43 4.0 13.0 0.00 0.00 0.00 66 1010.9
20260506223839 81 351 5.0 13.0 0.00 0.00 0.00 67 1010.9
20260506223338 81 81 5.0 14.0 0.00 0.00 0.00 69 1010.7
20260506222841 82 5 4.0 14.0 0.00 0.00 0.00 69 1010.7
20260506222341 82 36 4.0 12.0 0.00 0.00 0.00 69 1010.6
20260506221835 81 106 5.0 12.0 0.00 0.00 0.00 70 1010.5
20260506221329 81 40 5.0 14.0 0.00 0.00 0.00 69 1010.5
20260506220823 82 49 5.0 14.0 0.00 0.00 0.00 69 1010.5
20260506215813 82 54 5.0 14.0 0.00 0.00 0.00 70 1010.5
20260506215538 83 17 5.0 14.0 0.00 0.00 0.00 69 1010.5
20260506214759 83 52 4.0 13.0 0.00 0.00 0.00 68 1010.5
20260506214252 83 81 4.0 13.0 0.00 0.00 0.00 70 1010.4
20260506213746 82 95 4.0 13.0 0.00 0.00 0.00 70 1010.5
20260506213240 82 54 4.0 13.0 0.00 0.00 0.00 70 1010.5
20260506212734 82 12 4.0 13.0 0.00 0.00 0.00 70 1010.6
20260506212228 83 42 4.0 10.0 0.00 0.00 0.00 70 1010.6
20260506211953 83 57 4.0 12.0 0.00 0.00 0.00 69 1010.6
20260506211216 85 29 3.0 12.0 0.00 0.00 0.00 67 1010.4
20260506210710 86 61 2.0 6.0 0.00 0.00 0.00 68 1010.3
20260506210205 85 65 3.0 6.0 0.00 0.00 0.00 67 1010.4
20260506205658 85 67 2.0 5.0 0.00 0.00 0.00 68 1010.5
20260506205424 85 76 1.0 5.0 0.00 0.00 0.00 67 1010.5
20260506204646 85 81 1.0 4.0 0.00 0.00 0.00 67 1010.5
20260506204141 85 81 1.0 3.0 0.00 0.00 0.00 68 1010.5
20260506203635 85 81 2.0 5.0 0.00 0.00 0.00 67 1010.6
20260506203128 86 80 2.0 5.0 0.00 0.00 0.00 66 1010.6
20260506202622 86 81 2.0 5.0 0.00 0.00 0.00 66 1010.6
20260506202116 87 107 2.0 7.0 0.00 0.00 0.00 66 1010.7
20260506201611 86 109 1.0 7.0 0.00 0.00 0.00 66 1010.7
20260506201105 86 225 1.0 4.0 0.00 0.00 0.00 66 1010.7
20260506200559 86 226 1.0 4.0 0.00 0.00 0.00 66 1010.8
20260506200053 86 229 1.0 4.0 0.00 0.00 0.00 67 1010.9
20260506195546 85 238 1.0 4.0 0.00 0.00 0.00 67 1011.0
20260506195041 85 239 1.0 4.0 0.00 0.00 0.00 67 1011.1
20260506194534 86 240 2.0 4.0 0.00 0.00 0.00 68 1011.1
20260506194034 85 241 2.0 4.0 0.00 0.00 0.00 68 1011.1
20260506193522 85 230 2.0 5.0 0.00 0.00 0.00 66 1011.2
20260506193016 85 234 1.0 6.0 0.00 0.00 0.00 69 1011.1
20260506192510 84 100 2.0 7.0 0.00 0.00 0.00 69 1011.1
20260506192004 84 100 2.0 7.0 0.00 0.00 0.00 69 1011.1
20260506191459 84 88 2.0 7.0 0.00 0.00 0.00 69 1011.2
20260506190953 83 165 2.0 7.0 0.00 0.00 0.00 70 1011.2
20260506190447 83 114 2.0 6.0 0.00 0.00 0.00 73 1011.3
20260506185942 83 157 2.0 6.0 0.00 0.00 0.00 72 1011.4
20260506185435 83 115 2.0 7.0 0.00 0.00 0.00 71 1011.4
20260506184929 83 155 2.0 6.0 0.00 0.00 0.00 71 1011.4
20260506184422 83 126 2.0 7.0 0.00 0.00 0.00 74 1011.4
20260506184149 83 138 2.0 7.0 0.00 0.00 0.00 75 1011.6
20260506183411 82 139 3.0 7.0 0.00 0.00 0.00 76 1011.6
20260506182358 81 119 3.0 7.0 0.00 0.00 0.00 76 1011.8
20260506181854 81 117 2.0 7.0 0.00 0.00 0.00 76 1011.8
20260506181354 81 113 2.0 6.0 0.00 0.00 0.00 77 1012.0
20260506180854 80 105 2.0 6.0 0.00 0.00 0.00 78 1011.8
20260506180354 80 79 2.0 7.0 0.00 0.00 0.00 79 1011.9
20260506175852 80 80 3.0 9.0 0.00 0.00 0.00 79 1012.0
20260506175350 80 69 3.0 9.0 0.00 0.00 0.00 79 1012.1
20260506174850 80 132 3.0 8.0 0.00 0.00 0.00 79 1012.1
20260506174349 80 81 2.0 7.0 0.00 0.00 0.00 79 1012.1
20260506173850 80 105 2.0 7.0 0.00 0.00 0.00 80 1012.2
20260506173350 79 111 2.0 7.0 0.00 0.00 0.00 82 1012.1
20260506172850 78 92 2.0 6.0 0.00 0.00 0.00 83 1012.1
20260506172350 78 67 2.0 9.0 0.00 0.00 0.00 82 1012.1
20260506171850 78 78 2.0 9.0 0.00 0.00 0.00 83 1012.1
20260506171345 78 80 2.0 6.0 0.00 0.00 0.00 84 1012.4
20260506170846 78 87 2.0 5.0 0.00 0.00 0.00 83 1012.2
20260506170345 78 85 2.0 7.0 0.00 0.00 0.00 83 1012.2
20260506165846 78 85 2.0 7.0 0.00 0.00 0.00 82 1012.1
20260506165346 78 62 2.0 7.0 0.00 0.00 0.00 83 1012.2
20260506165116 78 59 2.0 7.0 0.00 0.00 0.00 82 1012.1
20260506163846 78 91 1.0 6.0 0.00 0.00 0.00 83 1012.2
20260506163346 78 84 2.0 4.0 0.00 0.00 0.00 84 1012.1
20260506162846 78 84 2.0 4.0 0.00 0.00 0.00 83 1012.1
20260506162617 78 87 2.0 4.0 0.00 0.00 0.00 84 1012.1
20260506161345 78 89 1.0 6.0 0.00 0.00 0.00 84 1012.1
20260506160842 78 97 1.0 6.0 0.00 0.00 0.00 84 1012.0
20260506160613 78 151 1.0 5.0 0.00 0.00 0.00 84 1012.0
20260506160111 77 152 1.0 5.0 0.00 0.00 0.00 84 1011.9
20260506155338 77 153 1.0 5.0 0.00 0.00 0.00 86 1011.8
20260506154838 76 157 1.0 3.0 0.00 0.00 0.00 87 1011.8
20260506154333 76 158 1.0 5.0 0.00 0.00 0.00 87 1011.8
20260506153834 76 158 1.0 5.0 0.00 0.00 0.00 86 1011.8
20260506153332 76 161 0.0 2.0 0.00 0.00 0.00 87 1011.7
20260506152832 76 161 0.0 2.0 0.00 0.00 0.00 87 1011.7
20260506152332 76 161 0.0 2.0 0.00 0.00 0.00 87 1011.7
20260506151831 76 161 0.0 2.0 0.00 0.00 0.00 87 1011.5
20260506151324 76 161 0.0 4.0 0.00 0.00 0.00 87 1011.5
20260506150817 76 161 1.0 4.0 0.00 0.00 0.00 87 1011.4
20260506150311 76 161 0.0 2.0 0.00 0.00 0.00 87 1011.3
20260506145805 76 161 0.0 2.0 0.00 0.00 0.00 87 1011.3
20260506145258 76 161 0.0 2.0 0.00 0.00 0.00 87 1011.3
20260506144753 76 161 1.0 4.0 0.00 0.00 0.00 87 1011.3
20260506144518 75 161 1.0 4.0 0.00 0.00 0.00 87 1011.3
20260506143741 75 161 1.0 4.0 0.00 0.00 0.00 87 1011.4
20260506143235 75 161 0.0 2.0 0.00 0.00 0.00 88 1011.3
20260506142728 75 161 0.0 2.0 0.00 0.00 0.00 88 1011.1
20260506142223 75 161 1.0 4.0 0.00 0.00 0.00 89 1011.1
20260506141717 75 161 1.0 4.0 0.00 0.00 0.00 89 1010.9
20260506141211 74 161 0.0 2.0 0.00 0.00 0.00 90 1010.8
20260506140705 74 161 1.0 4.0 0.00 0.00 0.00 90 1010.8
20260506140159 74 161 1.0 5.0 0.00 0.00 0.00 90 1010.7
20260506135923 74 161 1.0 5.0 0.00 0.00 0.00 90 1010.6
20260506135147 74 107 1.0 3.0 0.00 0.00 0.00 91 1010.5
20260506134641 74 107 1.0 3.0 0.00 0.00 0.00 91 1010.4
20260506134135 74 117 1.0 4.0 0.00 0.00 0.00 91 1010.2
20260506133629 74 117 1.0 4.0 0.00 0.00 0.00 91 1009.9
20260506133123 74 111 1.0 6.0 0.00 0.00 0.00 91 1010.0
20260506132617 74 111 2.0 6.0 0.00 0.00 0.00 91 1010.0
20260506132342 74 128 1.0 6.0 0.00 0.00 0.00 91 1009.8
20260506131605 74 131 1.0 4.0 0.00 0.00 0.00 91 1009.9
20260506131059 74 130 1.0 4.0 0.00 0.00 0.00 91 1009.7
20260506130554 74 130 1.0 4.0 0.00 0.00 0.00 91 1009.6
20260506130317 74 128 1.0 6.0 0.00 0.00 0.00 91 1009.5
20260506125035 74 188 1.0 5.0 0.00 0.00 0.00 91 1009.3
20260506124529 74 188 1.0 5.0 0.00 0.00 0.00 91 1009.3
20260506124022 74 191 1.0 3.0 0.00 0.00 0.00 91 1009.3
20260506123517 74 191 1.0 4.0 0.00 0.00 0.00 91 1009.5
20260506123015 74 191 1.0 4.0 0.00 0.00 0.00 91 1009.5
20260506122515 74 178 1.0 5.0 0.00 0.00 0.00 91 1009.3
20260506122244 74 178 1.0 5.0 0.00 0.00 0.00 91 1009.3
20260506121514 74 188 0.0 3.0 0.00 0.00 0.00 90 1009.5
20260506121011 74 188 1.0 4.0 0.00 0.00 0.00 91 1009.5
20260506120512 74 188 1.0 4.0 0.00 0.00 0.00 90 1009.6
20260506115511 74 188 1.0 3.0 0.00 0.00 0.00 90 1009.5
20260506115009 74 188 0.0 3.0 0.00 0.00 0.00 91 1009.3
20260506114508 74 188 0.0 1.0 0.00 0.00 0.00 90 1009.3
20260506114005 74 188 0.0 3.0 0.00 0.00 0.00 90 1009.5
20260506113734 74 188 0.0 3.0 0.00 0.00 0.00 90 1009.5
20260506113231 74 188 0.0 2.0 0.00 0.00 0.00 90 1009.3
20260506112459 74 188 0.0 0.0 0.00 0.00 0.00 90 1009.3
20260506111957 74 188 0.0 1.0 0.00 0.00 0.00 90 1009.5
20260506111508 74 188 0.0 1.0 0.00 0.00 0.00 90 1009.6
20260506111224 74 188 0.0 2.0 0.00 0.00 0.00 90 1009.6
20260506110451 74 188 1.0 2.0 0.00 0.00 0.00 90 1009.5
20260506110222 74 188 0.0 2.0 0.00 0.00 0.00 90 1009.5
20260506105719 74 188 0.0 2.0 0.00 0.00 0.00 91 1009.3
20260506104449 74 188 0.0 3.0 0.00 0.00 0.00 91 1009.3
20260506103946 74 188 1.0 4.0 0.00 0.00 0.00 91 1009.2